Voltar ao catálogo

COSMOS 1932

AtivoMilitarLEO
NORAD 18957·PAYLOAD·🇷🇺 Russia

Lançado Mar 14, 1988 de Baikonur Cosmodrome

Loading…

Próximas Passagens (próximas 24 horas)

TLE

AtualizadoSource: Space-Track

Época: Sep 14, 2026, 22:55 UTC

1 18957U 88019A   26257.95534733 -.00000076  00000-0  10654-4 0  9991
2 18957  65.0423 263.2806 0053185 218.9299 140.7925 13.79821792941530

Acompanhe COSMOS 1932 em tempo real com AllMySat

Download on the App Store